Home   Weather   Jujuy   Past weeks

Flag for Argentina Past Weather in Jujuy, Jujuy, Argentina — Yesterday and Last 2 Weeks

Now
82 °F

Passing clouds.


Feels Like: 84 °F
Forecast: 58 / 96 °F
Wind: 6 mph from Southeast

Location: Jujuy Aerodrome

Current Time: Dec 13, 2017 at 11:44:04 am

Latest Report: Dec 13, 2017 at 10:00 am


Visibility: N/A

Pressure: 29.86 "Hg (21.50 "Hg at 2895m altitude)

Humidity: 55%

Dew Point: 64 °F

Location of JujuyLocation

Past Weather in Jujuy — Graph

°F

Jujuy Temperature Yesterday

Maximum temperature yesterday: 90 °F (at 5:00 pm)
Minimum temperature yesterday: 64 °F (at 5:00 am)
Average temperature yesterday: 77 °F

High & Low Weather Summary for the Past Weeks

 TemperatureHumidityPressure
High95 °F (Dec 9, 2:00 pm)100% (Dec 3, 11:00 pm)30.12 "Hg (Dec 3, 11:00 pm)
Low63 °F (Dec 4, 8:00 pm)17% (Dec 11, 3:00 pm)29.68 "Hg (Dec 1, 5:00 pm)
Average76 °F66%29.92 "Hg
* Reported Nov 28 10:00 am — Dec 13 10:00 am, Jujuy. Weather by CustomWeather, © 2017

Note: Actual official high and low records may vary slightly from our data, if they occured in-between our weather recording intervals... More about our weather records

Advertising

Jujuy Weather History for the Previous 24 Hours

Scroll right to see more
 ConditionsComfort  
Time TempWeatherWind HumidityBarometerVisibility
10:00 am
Wed, Dec 13
82 °FPassing clouds.6 mph55%29.86 "HgN/A
9:00 am79 °FSunny.No wind58%29.86 "Hg10 mi
8:00 am72 °FSunny.5 mph73%30.01 "Hg10 mi
7:00 am66 °FSunny.No wind88%29.83 "Hg10 mi
6:00 am68 °FClear.6 mph83%29.80 "Hg10 mi
5:00 am70 °FClear.6 mph78%29.80 "Hg10 mi
4:00 am68 °FClear.9 mph78%29.80 "Hg10 mi
3:00 am70 °FPassing clouds.7 mph83%29.83 "HgN/A
2:00 am73 °FPassing clouds.7 mph74%29.83 "HgN/A
1:00 am73 °FPassing clouds.No wind74%29.89 "HgN/A
12:00 am75 °FPassing clouds.No wind74%29.89 "HgN/A
11:00 pm
Tue, Dec 12
79 °FPassing clouds.No wind58%29.89 "HgN/A
10:00 pm79 °FPassing clouds.12 mph58%29.89 "HgN/A
9:00 pm81 °FPassing clouds.6 mph54%29.86 "HgN/A
8:00 pm82 °FPassing clouds.No wind51%29.83 "HgN/A
7:00 pm86 °FPassing clouds.10 mph46%29.83 "HgN/A
6:00 pm88 °FPassing clouds.9 mph40%29.80 "HgN/A
5:00 pm90 °FPassing clouds.8 mph38%29.80 "HgN/A
4:00 pm88 °FPassing clouds.7 mph38%29.83 "HgN/A
3:00 pm88 °FPassing clouds.6 mph38%29.86 "HgN/A
2:00 pm86 °FPassing clouds.8 mph40%29.89 "HgN/A
1:00 pm86 °FPassing clouds.8 mph40%29.92 "HgN/A
12:00 pm84 °FPassing clouds.10 mph43%29.95 "HgN/A
11:00 am82 °FPassing clouds.10 mph45%29.95 "HgN/A
Weather by CustomWeather, © 2017

See weather overview